STARLINK-5493, 55333

Orbit data source: Space-Track

STARLINK-5493, 55333 is a payload satellite owned by SpaceX/Seattle (US) in LEO that was launched on Thu, 26 Jan 2023 UTC via an FALCON 9 launch vehicle from the Air Force Eastern Test Range (AFETR). Payload-class satellites include a variety of spacecraft equipped with specific instruments for various scientific and technological missions. These include communications satellites like Starlink; space stations such as the ISS; scientific satellites like the Hubble; Earth observation satellites from companies like Planet Labs, Umbra, and HawkEye 360; GPS; miniature CubeSats for education and research; and military/defense satellites.

Loading next visibility...
Identifier
55333, 2023-013C
Orbit
LEO
Country
Flag of USUS
Related business
Manufacturer
SpaceX/Seattle
Mission
Operational Commercial Communications
Bus & Motor
STARLINK, Unknown motor
Mass
305 kg wet, ~290 kg dry
Launch date (UTC)
2023-01-26 (3 years ago)
Launch vehicle
FALCON 9
Launch site
Air Force Eastern Test Range (AFETR)
Object type
Payload
Rocket body
Debris
Shape & HBR
Box + 1 Pan, 10.1 m
Radar Cross Section
13.562 m², Large (>1 m²)

Expand to show TLE details & history
Last TLE update: 10 hours ago

TLE from 10 hours ago
0 STARLINK-5493
1 55333U 23013C   25349.84861077 -.00000585  00000-0 -28266-4 0  9990
2 55333  43.0035  36.2376 0000883 256.2478 103.8266 15.02530647159099
Epoch: 2025-12-15T20:21Z
TLE epoch observation values (Epoch: 2025-12-15T20:21:59.970Z)
Latitude
-0.00003°
Longitude
5.99641°
Altitude
559.021 km
Speed
7.584 km/s
True Right ascension
02h 24m 57s
True Declination
0° 00' 00"
Sunlit
Object was in full shadow at epoch
Visualization orbit readout
Latitude
Unknown
Longitude
Unknown
Altitude
Unknown
Speed
Unknown
Apparent Right ascension
Unknown
Apparent Declination
Unknown
Sunlit
N/A
Visualization observer readout
Local Sidereal Time
05:30:00
Azimuth
Unknown
Elevation
Unknown
Doppler factor
Unknown
Orbital elements
Apogee altitude
561.632 km
Perigee altitude
560.407 km
Semi-major axis
6,939.156 km
Eccentricity
0.00009
Inclination
43.0035°
RAAN
36.2376°
Arg. of periapsis
256.2478°
True anomaly
103.83642°
Mean anomaly
103.8266°
Eccentric anomaly
103.83151°
Mean motion
3.75477 °/min
Orbital period
95.88 mins
BSTAR
-0.000028266
Loading maneuver chart data...
Computing Atmospheric mass density...
Loading historical data...
Loading historical data...
Loading historical data...
Loading historical data...
Loading historical data...
Loading historical data...
Loading historical data...

Documentation

Showing up to 5 results
|